Regional Weather Roundup
Issued by NWS

Home | Current Version | Previous Version | Graphics & Text | Print | Product List | Glossary On
Versions: 1 2 3 4 5 6 7 8 9 10 11 12 13 14 15 16 17 18 19 20 21 22 23 24 25 26 27 28 29 30 31 32 33 34 35 36 37 38 39 40 41 42 43 44 45 46 47 48 49 50
000
ASUS43 KLOT 260812
RWRIL

ILLINOIS REGIONAL WEATHER ROUNDUP
NATIONAL WEATHER SERVICE CHICAGO/ROMEOVILLE IL
300 AM CDT SUN APR 26 2015

NOTE: "FAIR" INDICATES FEW OR NO CLOUDS BELOW 12,000 FEET WITH NO
SIGNIFICANT WEATHER AND/OR OBSTRUCTIONS TO VISIBILITY.

* THESE STATIONS ARE NOT UNDER NWS QUALITY CONTROL. THEY ALSO MAY NOT
  REPORT WEATHER SUCH AS PRECIPITATION OR FOG.

ILZ001-002-007-009-015-016-024-260900-
NORTHWEST ILLINOIS

CITY           SKY/WX    TMP DP  RH WIND       PRES   REMARKS
MOLINE         CLEAR     42  33  70 CALM      29.92R
STERLING*      CLEAR     37  28  70 NE8       29.91S WCI  31
SAVANNA*       CLEAR     39  25  58 N5        29.93R
$$

ILZ003-004-008-010-011-017-018-260900-
NORTH CENTRAL ILLINOIS

CITY           SKY/WX    TMP DP  RH WIND       PRES   REMARKS
ROCKFORD       CLEAR     35  22  58 N9        29.94R WCI  28
FREEPORT*      CLEAR     35  24  64 CALM      29.94S
ROCHELLE*      CLEAR     36  26  66 N9        29.91S WCI  29
DE KALB*       CLEAR     33  26  78 N6        29.91R WCI  27
PERU*          CLEAR     37  29  72 N9        29.90S WCI  30
$$

ILZ005-006-012>014-019>023-260900-
NORTHEAST ILLINOIS

CITY           SKY/WX    TMP DP  RH WIND       PRES   REMARKS
CHICAGO-OHARE  CLEAR     37  29  72 N7        29.89R WCI  32
CHICAGO-MIDWAY MOCLDY    41  33  73 N9        29.88S
AURORA         CLEAR     38  27  64 N9        29.90R WCI  31
LANSING*       CLEAR     37  34  87 N3        29.87S
JOLIET*        PTCLDY    40  32  74 N6        29.89R
WAUKEGAN       CLEAR     35  29  78 N6        29.92R WCI  30
DUPAGE AIRPORT CLEAR     33  27  78 N8        29.89R WCI  26
KANKAKEE*      CLEAR     39  35  85 NW3       29.87S
WHEELING       CLEAR     35  29  78 N5        29.92R WCI  31
MORRIS*        PTCLDY    36  31  85 N3        29.85S
ROMEOVILLE*    PTCLDY    37  31  78 N10       29.88R WCI  29
NORTHERLY ISL    N/A     42  34  73 N13         N/A
$$

LMZ740>746-260900-
SOUTHERN LAKE MICHIGAN

STATION/POSITION SKY/WX   TEMP    WIND        PRES    VSBY  WAVE
                          AIR SEA DIR/SP/G                  HT/PER
                          (F)     (DEG/KT/KT) (MB)    (MI)  (FT/S)
HARRISON CRIB              41      30/ 13/ 15   N/A
BURNHAM HARBOR             42      30/ 12       N/A
CALUMET HARBOR             41      10/  6/ 10   N/A
BURNS HARBOR               42      10/  9/ 10 1011.9R
MICHIGAN CITY              42      20/  9/ 10   N/A
MICHIGAN CITY 6N           42 45   50/ 12/ 14   N/A           3/ 5
$$

ILZ025>027-034>036-040-047-049-050-058-095>099-260900-
WEST-CENTRAL ILLINOIS

CITY           SKY/WX    TMP DP  RH WIND       PRES   REMARKS
QUINCY         CLOUDY    46  41  82 NE16      29.87R
GALESBURG*     MOCLDY    39  32  75 NE8       29.90R WCI  34
MACOMB*        CLOUDY    43  37  80 NE12      29.90S
JACKSONVILLE*  CLOUDY    47  43  83 NE12      29.85R
PITTSFIELD*    CLOUDY    47  42  83 N8        29.86R
$$

ILZ028>032-037-038-041>044-048-051>054-059>061-260900-
CENTRAL ILLINOIS

CITY           SKY/WX    TMP DP  RH WIND       PRES   REMARKS
PONTIAC        CLOUDY    41  36  83 N8        29.88S
BLOOMINGTON    PTCLDY    40  37  89 NE14      29.86S
DECATUR        CLOUDY    45  40  82 NE15      29.82S
PEORIA         PTCLDY    43  32  65 NE6       29.88R
LACON*         MOCLDY    40  28  62 NE3       29.88F
LINCOLN*       CLEAR     43  39  86 N12       29.85S
SPRINGFIELD    CLOUDY    47  42  83 NE14      29.84R
TAYLORVILLE    CLOUDY    45  41  87 N10       29.82R
$$

ILZ033-039-045-046-055>057-062-063-260900-
EAST-CENTRAL ILLINOIS

CITY           SKY/WX    TMP DP  RH WIND       PRES   REMARKS
CHAMPAIGN      CLOUDY    44  38  79 N14       29.83R
DANVILLE*      CLOUDY    41  37  86 N9        29.80R
RANTOUL*       CLOUDY    44  38  80 N9        29.84R
MATTOON        CLOUDY    44  40  85 N12       29.80R
PARIS*         CLOUDY    44  36  73 NE7       29.81R
$$

ILZ079-100>102-260900-
SOUTHWEST ILLINOIS

CITY           SKY/WX    TMP DP  RH WIND       PRES   REMARKS
ALTON          CLOUDY    47  44  87 N8        29.80F
BELLEVILLE     CLOUDY    48  48  99 N7        29.77S
CAHOKIA*       CLOUDY    48  45  89 N12G20    29.79S
SPARTA*        CLOUDY    47  45  91 N9        29.76S
$$

ILZ064>066-069>071-074>076-080>082-084>086-088>090-092>094-260900-
SOUTH-CENTRAL ILLINOIS

CITY           SKY/WX    TMP DP  RH WIND       PRES   REMARKS
CARBONDALE     CLOUDY    50  47  89 N10       29.74R FOG
CAIRO*         CLOUDY    55  53  95 N12       29.71R FOG
EFFINGHAM*     CLOUDY    46  41  82 N6        29.80R
MARION         CLOUDY    50  48  93 NE8       29.74R
MT. VERNON     CLOUDY    48  43  81 N8        29.76R
CENTRALIA*     CLOUDY    46  43  88 N12G17    29.77R
SALEM*         CLOUDY    49  45  84 NE8       29.78R
METROPOLIS*    CLOUDY    53  53 100 N12       29.70R FOG
$$

ILZ067-068-072-073-078-083-087-091-260900-
SOUTHEAST ILLINOIS

CITY           SKY/WX    TMP DP  RH WIND       PRES   REMARKS
LAWRENCEVILLE  CLOUDY    47  43  86 NE9       29.76R
FLORA*         CLOUDY    47  44  87 NE8       29.77R
FAIRFIELD*     CLOUDY    48  45  88 N8        29.75R
HARRISBURG*    CLOUDY    49  48  97 N8        29.74R
ROBINSON*      CLOUDY    46  42  86 NE10      29.78R
CARMI*         CLOUDY    48  43  81 N12       29.73R
$$

ABBREVIATIONS USED IN REMARKS
   TC - TEMPERATURE IN CELSIUS
  WCI - WIND CHILL INDEX
   HX - HEAT INDEX
  VSB - VISIBILITY
$$



USA.gov is the U.S. government's official web portal to all federal, state and local government web resources and services.